Location: Glencliff
(36.1226°N, 86.7183°W)
Time: 22:52:53
(UTC+00:00)

Cosmos 1869 - Pass Details

Date: 25 August 2019
Orbit: 535 x 549 km, 82.5° (Epoch: 17 September)

Event Time Altitude Azimuth Distance (km) Brightness Sun altitude
Exits shadow 10:08:47 - 187° (S) 2,379 6.3 -13.1°
Reaches altitude 10° 10:10:13 10° 188° (S) 1,781 5.6 -12.8°
Maximum altitude 10:14:08 85° 277° (W) 542 3.2 -12.1°
Drops below altitude 10° 10:18:05 10° 6° (N) 1,795 6.3 -11.3°
Sets 10:20:15 0° 7° (N) 2,691 7.3 -10.9°
